{"data":{"norad_id":63771,"intl_designator":"2025-089W","name":"STARLINK-33841","alt_names":[],"object_type":"PAYLOAD","status":"ACTIVE","operator":null,"country":"US","launch_date":"2025-04-29","launch_site_code":"AFETR","launch_vehicle":null,"mission":null,"orbit_class":"UNKNOWN","rcs_meters":null,"size_class":null,"mass_kg":null,"dimensions":null,"purposes":["comms"],"wikipedia_slug":null,"has_3d_model":false,"image_url":null,"decayed_at":null,"tle_current":{"epoch":"2026-09-20T15:16:15.223584Z","epoch_age_seconds":138070,"freshness":"FRESH","line1":"1 63771U 25089W   26263.63628731  .00013257  00000+0  49028-3 0  9996","line2":"2 63771  42.9993  24.1439 0000388 241.9219 118.1593 15.27588289 78729","mean_motion":15.27588289,"eccentricity":3.88e-5,"inclination_deg":42.9993,"raan_deg":24.1439,"arg_perigee_deg":241.9219,"mean_anomaly_deg":118.1593,"bstar":0.00049028,"rev_number":7872,"period_min":94.266237203393,"perigee_km":482.75806284643,"apogee_km":483.29048896144,"semimajor_km":6861.1612759039,"source":"CELESTRAK","updated_at":"2026-09-21T09:00:35.096900Z"}}}